Change the Weather History Date:

Friday, August 30, 2013

  Actual Average Record
Temperature  
Mean Temperature 38 °F -  
Max Temperature 41 °F 46 °F 53 °F (1999)
Min Temperature 34 °F 39 °F 34 °F (2013)
Degree Days  
Heating Degree Days 28    
Moisture  
Dew Point 30 °F    
Average Humidity 73    
Maximum Humidity 84    
Minimum Humidity 64    
Precipitation  
Precipitation 0.00 in - - ()
Sea Level Pressure  
Sea Level Pressure 30.03 in    
Wind  
Wind Speed 7 mph (NNE)    
Max Wind Speed 16 mph    
Max Gust Speed -    
Visibility 10 miles    
Events      
Averages and records for this station are not official NWS values.
T = Trace of Precipitation, MM = Missing Value Source: NWS Daily Summary

Daily Weather History Graph

Daily Weather History Graph

Search for Another Location

Airport or City:

Trip Planner

Search our weather history database for the weather conditions in past years. The results will help you decide how hot, cold, wet, or windy it might be!

Date:

Astronomy

Aug. 30, 2013 Rise Set
Actual Time 7:44 AM AKDT 10:38 PM AKDT
Civil Twilight 6:45 AM AKDT 11:35 PM AKDT
Nautical Twilight 5:19 AM AKDT 12:59 AM AKDT
Astronomical Twilight 3:44 AM AKDT 2:39 AM AKDT
Moon 1:06 AM AKDT (8/30) 8:21 PM AKDT (8/30)
Length of Visible Light 16h 49m
Length of Day
14h 54m
Waning Crescent, 28% of the Moon is Illuminated
Aug 30
Waning Crescent
Sep 5
New
Sep 12
First Quarter
Sep 19
Full
Sep 26
Last Quarter

Hourly Weather History & Observations

Time (AKDT) Temp. Windchill Dew Point Humidity Pressure Visibility Wind Dir Wind Speed Gust Speed Precip Events Conditions
7:55 AM 34.7 °F - 28.9 °F 79% 30.02 in 10.0 mi Variable 2.3 mph - N/A   Mostly Cloudy
8:55 AM 35.1 °F 31.0 °F 28.9 °F 78% 30.03 in 10.0 mi NNE 4.6 mph - N/A   Mostly Cloudy
9:55 AM 35.8 °F 30.9 °F 29.8 °F 79% 30.03 in 10.0 mi NE 5.8 mph - N/A   Mostly Cloudy
10:16 AM 35.6 °F 30.7 °F 30.2 °F 81% 30.04 in 10.0 mi NNE 5.8 mph - N/A   Scattered Clouds
10:55 AM 37.2 °F 32.6 °F 30.0 °F 75% 30.04 in 10.0 mi NNE 5.8 mph - N/A   Partly Cloudy
11:55 AM 38.1 °F 31.7 °F 30.0 °F 73% 30.05 in 10.0 mi North 9.2 mph - N/A   Mostly Cloudy
12:55 PM 38.1 °F 33.7 °F 30.6 °F 74% 30.05 in 10.0 mi NE 5.8 mph - N/A   Scattered Clouds
1:36 PM 39.2 °F 33.6 °F 32.0 °F 75% 30.05 in 10.0 mi NE 8.1 mph - N/A   Mostly Cloudy
1:55 PM 39.0 °F 33.4 °F 30.0 °F 70% 30.04 in 10.0 mi NNE 8.1 mph - N/A   Mostly Cloudy
2:16 PM 39.2 °F 33.0 °F 30.2 °F 70% 30.05 in 10.0 mi NNE 9.2 mph - N/A   Scattered Clouds
2:55 PM 39.9 °F 35.8 °F 29.8 °F 67% 30.04 in 10.0 mi Variable 5.8 mph - N/A   Partly Cloudy
3:36 PM 41.0 °F 34.7 °F 32.0 °F 70% 30.04 in 10.0 mi NE 10.4 mph - N/A   Mostly Cloudy
3:55 PM 40.1 °F 34.1 °F 30.2 °F 68% 30.04 in 10.0 mi North 9.2 mph - N/A   Scattered Clouds
4:16 PM 41.0 °F 36.4 °F 30.2 °F 65% 30.04 in 10.0 mi NE 6.9 mph - N/A   Mostly Cloudy
4:36 PM 41.0 °F 36.4 °F 30.2 °F 65% 30.04 in 10.0 mi NNE 6.9 mph - N/A   Scattered Clouds
4:55 PM 40.8 °F 35.6 °F 29.7 °F 64% 30.04 in 10.0 mi NNE 8.1 mph - N/A   Clear
5:55 PM 41.0 °F 33.9 °F 30.4 °F 66% 30.03 in 10.0 mi NNE 12.7 mph - N/A   Clear
6:55 PM 40.5 °F 32.1 °F 30.0 °F 66% 30.02 in 10.0 mi NNE 16.1 mph - N/A   Clear
7:55 PM 40.5 °F 32.5 °F 30.7 °F 68% 30.01 in 10.0 mi NNE 15.0 mph - N/A   Clear
8:55 PM 39.9 °F 31.8 °F 31.6 °F 72% 30.00 in 10.0 mi NNE 15.0 mph - N/A   Clear
9:55 PM 37.8 °F 29.4 °F 32.0 °F 80% 30.00 in 10.0 mi NNE 13.8 mph - N/A   Partly Cloudy
10:55 PM 37.0 °F 28.5 °F 31.8 °F 81% 29.99 in 10.0 mi NE 13.8 mph - N/A   Partly Cloudy
11:55 PM 36.5 °F 28.2 °F 32.2 °F 84% 29.98 in 10.0 mi NE 12.7 mph - N/A   Partly Cloudy